This is the latest recevied weather packets stored in our database for station/object WE8M. If no packets are shown the sender has not sent any weather packets the latest 10 day(s).
| Time | Temp. | Humidity | Pressure | Rain* | Wind** | Luminosity | Snow |
|---|---|---|---|---|---|---|---|
| 1777863382 | 12.78° C | 52% | 1014.4 hPa | 0 mm | - | - | - |
| 1777863079 | 12.78° C | 51% | 1014.1 hPa | 0 mm | - | - | - |
| 1777862776 | 12.22° C | 56% | 1014.4 hPa | 0 mm | - | - | - |
| 1777862473 | 12.22° C | 55% | 1014.6 hPa | 0 mm | - | - | - |
| 1777862169 | 12.78° C | 55% | 1014.4 hPa | 0 mm | - | - | - |
| 1777861865 | 12.78° C | 52% | 1014.1 hPa | 0 mm | - | - | - |
| 1777861562 | 12.78° C | 51% | 1014.6 hPa | 0 mm | - | - | - |
| 1777861258 | 12.78° C | 48% | 1014.5 hPa | 0 mm | - | - | - |
| 1777860956 | 12.78° C | 47% | 1014.3 hPa | 0 mm | - | - | - |
| 1777860652 | 12.78° C | 48% | 1013.9 hPa | 0 mm | - | - | - |
| 1777860349 | 12.78° C | 51% | 1014 hPa | 0 mm | - | - | - |
| 1777860046 | 12.78° C | 49% | 1014.3 hPa | 0 mm | - | - | - |
| 1777859742 | 12.78° C | 49% | 1013.9 hPa | 0 mm | - | - | - |
| 1777859438 | 12.78° C | 50% | 1014 hPa | 0 mm | - | - | - |
| 1777859134 | 12.78° C | 50% | 1014.1 hPa | 0 mm | - | - | - |
| 1777858832 | 12.78° C | 50% | 1014.1 hPa | 0 mm | - | - | - |
| 1777858529 | 12.78° C | 50% | 1013.9 hPa | 0 mm | - | - | - |
| 1777858226 | 13.33° C | 49% | 1014.2 hPa | 0 mm | - | - | - |
| 1777857924 | 13.33° C | 47% | 1014.3 hPa | 0 mm | - | - | - |
| 1777857622 | 13.33° C | 47% | 1014.2 hPa | 0 mm | - | - | - |
| 1777857318 | 13.33° C | 47% | 1014.2 hPa | 0 mm | - | - | - |
| 1777857014 | 13.33° C | 45% | 1014.2 hPa | 0 mm | - | - | - |
| 1777856710 | 13.33° C | 45% | 1014.2 hPa | 0 mm | - | - | - |
| 1777856406 | 13.33° C | 46% | 1014 hPa | 0 mm | - | - | - |
| 1777856103 | 13.33° C | 45% | 1013.8 hPa | 0 mm | - | - | - |
* Rain latest hour (hover to see other rain measurements)
** Current wind speed in m/s (hover to see current wind gust speed)